Location: Newark
(52.4787°S, 179.0532°W)
Time: 03:56:15
(UTC+00:00)

Envisat - Pass Details

Date: 30 October 2019
Orbit: 764 x 766 km, 98.1° (Epoch: 18 November)

Event Time Altitude Azimuth Distance (km) Brightness Sun altitude
Rises 07:28:39 0° 168° (SSE) 3,278 6.5 -4.7°
Reaches altitude 10° 07:31:00 10° 170° (S) 2,345 5.8 -5.0°
Maximum altitude 07:36:06 64° 250° (WSW) 863 3.7 -5.7°
Drops below altitude 10° 07:41:10 10° 330° (NNW) 2,318 5.5 -6.3°
Sets 07:43:28 0° 333° (NNW) 3,237 6.2 -6.6°
